星链-31948 (STARLINK-31948 )

导读 | 豆包AI

STARLINK-31948是美国SpaceX星链星座部署的卫星,于2024年6月1日发射入轨,隶属于SpaceX打造的星链互联网卫星星座项目,旨在为全球提供低延迟、高速率的卫星宽带互联网服务。星链通过批量发射低轨卫星,逐步完成星座组网,持续扩容全球卫星互联网覆盖能力,推动卫星通信服务普及。

Basic Information
目录编号:
59941
目录名称:
STARLINK-31948
国际标识:
2024-106V
轨道中心:
EARTH
卫星名称:
星链-31948
卫星全名:
星链-31948 (STARLINK-31948 )
卫星状态:
在轨 (已飞行699 天)
发射日期:
2024-06-01 UTC
国别 :
美国 (US)
星等 :
--
Orbit Information
数据来源 国际轨道数据 AOE轨道数据
星历时间 2026-04-30T12:16:01+0800
23小时前
查看轨道信息
2026-04-26T17:00:00+0800
4天前
查看轨道信息
半长轴 6861.196km 6861.137km
偏心率 0.0001442 0.0001258
轨道倾角 43.003° 43.001°
近地点辐角 269.502° 247.293°
升交点赤经 38.489° 59.967°
平近点角 90.566° 55.722°
近地点 482.069km 482.136km
远地点 484.049km 483.864km
周期 94.267分钟 94.266分钟
每日圈数 15.275767 15.275966
Detailed Information
固有亮度:
5
最大亮度:
1.5
卫星平台:
Starlink v2.0 mini
覆盖范围:
全球
运营商:
太空探索技术公司
运营商所在国:
美国
制造商(研发单位):
太空探索技术公司
制造商所在国:
美国
使用方式:
暂无
Satellite Introduction
星链(Starlink)计划是由太空探索技术公司(SpaceX)提出的一个巨型低轨卫星互联网星座项目,计划在2019年至2024年间在太空搭建由约1.2万颗卫星组成的“星链”网络,其中1584颗将部署在地球上空550千米处的近地轨道,并从2020年开始工作。该卫星仍在工作。
2D Orbit Map
3D Orbit Map
Orbit Altitude Analysis Chart
Orbit Inclination Analysis Chart
Orbit Comprehensive Analysis Chart
View Comprehensive Chart